Rechercher aéroport 
image banner adimage banner adimage banner ad
image banner ad

9CA4 - Hdmc Holdings Llc

Situé à Joshua Tree, United States

ICAO - 9CA4, IATA -

Données fournies par Airmate  

Information générale

Coordonnées: N34°7'53" W116°16'33"
Élévation : 2652 feet MSL.
Variation magnétique : 14° East
Voir autres Aéroports à California

Données opérationnelles

Special qualification required
Heure actuelle UTC:
Heure actuelle locale:
Météo à : KNXP - Twentynine Palms Self ( 21 km )
METAR: KNXP 210056Z AUTO 09007KT 10SM CLR 33/M02 A3004 RMK AO2 SLP137 T03331022
TAF: TAF KNXP 2021/2121 08008KT 9999 SKC QNH3004INS BECMG 2100/2102 VRB06KT 9999 SKC QNH3009INS T34/2023Z T19/2114Z
Voir NOTAMs / SUP AIP / TFR affectant cet aéroport [VIEW]
Fréquences de communication: [VIEW]

Pistes:

Coordonnées de l'aéroport

Adresse: Joshua Tree United States

Vue satellite de 9CA4